Location: Newark
(42.8481°N, 0.4872°E)
Time: 08:42:31
(UTC+00:00)

SR - Pass Details

Date: 03 November 2020
Orbit: 579 x 876 km, 66.7° (Epoch: 29 November)

Event Time Altitude Azimuth Distance (km) Brightness Sun altitude
Rises 00:53:34 0° 215° (SW) 2,781 - -58.3°
Reaches altitude 10° 00:55:46 10° 218° (SW) 1,889 - -58.1°
Maximum altitude 00:59:58 71° 302° (WNW) 628 - -57.6°
Drops below altitude 10° 01:04:22 10° 27° (NNE) 1,974 - -57.1°
Sets 01:06:42 0° 30° (NNE) 2,920 - -56.8°
